FW3734 Weather Reports


time (UTC)temp
F
wind
direction
speed
knots
gust
knots
rain 1hr
in
rain 24hr
in
rain mn
in
humidity
%
barometer
mb
20260901104551 78 243 0.0 0.0 0.00 0.00 0.00 73 1015.8
20260901103050 78 243 0.0 0.0 0.00 0.00 0.00 73 1015.7
20260901101550 79 243 0.0 0.9 0.00 0.00 0.00 72 1015.6
20260901100049 79 243 0.0 0.0 0.00 0.00 0.00 72 1015.5
20260901094545 79 243 0.0 0.9 0.00 0.00 0.00 72 1015.5
20260901093043 79 243 0.0 0.0 0.00 0.00 0.00 71 1015.4
20260901091543 80 243 0.0 0.0 0.00 0.00 0.00 71 1015.4
20260901090046 80 243 0.0 0.0 0.00 0.00 0.00 71 1015.3
20260901084543 80 243 0.0 0.0 0.00 0.00 0.00 71 1015.0
20260901083037 80 208 0.0 0.0 0.00 0.00 0.00 71 1014.9
20260901081535 80 208 0.0 0.0 0.00 0.00 0.00 70 1014.9
20260901080034 81 208 0.0 0.0 0.00 0.00 0.00 70 1014.9
20260901074532 81 185 0.0 0.0 0.00 0.00 0.00 69 1015.0
20260901073032 81 185 0.0 0.0 0.00 0.00 0.00 69 1014.9
20260901071531 81 185 0.0 0.0 0.00 0.00 0.00 69 1014.8
20260901070029 81 185 0.0 0.0 0.00 0.00 0.00 69 1014.8
20260901064531 81 185 0.0 0.0 0.00 0.00 0.00 69 1014.9
20260901063029 81 185 0.0 0.0 0.00 0.00 0.00 69 1015.0
20260901061529 81 185 0.0 0.0 0.00 0.00 0.00 69 1014.9
20260901060025 81 185 0.0 0.0 0.00 0.00 0.00 70 1014.9
20260901054524 82 185 0.0 0.0 0.00 0.00 0.00 69 1014.9
20260901053022 82 185 0.0 0.0 0.00 0.00 0.00 68 1014.9
20260901051521 82 185 0.0 1.7 0.00 0.00 0.00 68 1014.8
20260901050018 83 185 0.0 0.0 0.00 0.00 0.00 67 1014.8
20260901044535 83 184 0.0 0.0 0.00 0.00 0.00 67 1014.8
20260901043016 83 215 0.0 1.7 0.00 0.00 0.00 66 1014.9
20260901041525 83 198 0.0 1.7 0.00 0.00 0.00 65 1014.9
20260901040016 84 211 0.0 1.7 0.00 0.00 0.00 64 1014.9
20260901034524 84 209 0.0 0.0 0.00 0.00 0.00 63 1015.0
20260901033037 85 231 0.0 0.0 0.00 0.00 0.00 63 1014.9
20260901031515 85 229 0.0 0.0 0.00 0.00 0.00 63 1014.8
20260901030024 85 203 0.0 0.9 0.00 0.00 0.00 62 1014.7
20260901024521 86 168 0.0 0.9 0.00 0.00 0.00 62 1014.6
20260901023013 86 169 0.0 0.9 0.00 0.00 0.00 61 1014.6
20260901021518 87 171 0.0 0.0 0.00 0.00 0.00 60 1014.5
20260901020015 87 171 0.0 0.0 0.00 0.00 0.00 59 1014.4
20260901014512 88 313 0.0 0.0 0.00 0.00 0.00 58 1014.2
20260901013012 88 313 0.0 0.0 0.00 0.00 0.00 56 1014.1
20260901011513 89 315 0.0 0.0 0.00 0.00 0.00 53 1013.9
20260901010016 90 315 0.0 0.0 0.00 0.00 0.00 51 1013.9
20260901004509 91 315 0.0 0.0 0.00 0.00 0.00 48 1013.7
20260901003015 93 315 0.0 0.0 0.00 0.00 0.00 47 1013.6
20260901001508 94 315 0.0 0.0 0.00 0.00 0.00 46 1013.6
20260901000022 95 315 0.0 0.0 0.00 0.00 0.00 45 1013.6
20260831234508 95 315 0.0 0.0 0.00 0.00 0.00 44 1013.6
20260831233008 95 257 0.0 0.0 0.00 0.00 0.00 43 1013.7
20260831231507 96 219 0.0 0.0 0.00 0.00 0.00 42 1013.7
20260831230014 97 215 0.0 0.9 0.00 0.00 0.00 41 1013.6
20260831224505 98 297 0.0 2.6 0.00 0.00 0.00 41 1013.5
20260831223005 98 209 0.0 0.9 0.00 0.00 0.00 42 1013.4
20260831221504 98 267 0.0 4.3 0.00 0.00 0.00 41 1013.6
20260831220002 98 225 0.0 3.5 0.00 0.00 0.00 41 1013.7
20260831214502 98 202 0.0 0.0 0.00 0.00 0.00 41 1013.7
20260831213001 98 162 0.0 0.9 0.00 0.00 0.00 39 1013.6
20260831211501 98 272 0.0 0.0 0.00 0.00 0.00 40 1013.6
20260831210100 99 212 0.0 1.7 0.00 0.00 0.00 40 1013.7
20260831204558 99 209 0.0 0.9 0.00 0.00 0.00 39 1013.8
20260831203104 99 275 0.0 0.0 0.00 0.00 0.00 42 1013.8
20260831201554 98 325 0.0 0.9 0.00 0.00 0.00 42 1014.1
20260831200053 97 229 0.0 0.9 0.00 0.00 0.00 42 1014.2
20260831194601 97 257 0.0 0.9 0.00 0.00 0.00 43 1014.4
20260831193043 96 256 0.0 2.6 0.00 0.00 0.00 43 1014.5
20260831191539 95 194 0.0 2.6 0.00 0.00 0.00 45 1014.7
20260831190045 95 192 0.0 2.6 0.00 0.00 0.00 46 1014.8
20260831184534 94 325 0.0 0.0 0.00 0.00 0.00 47 1015.0
20260831183029 94 205 0.0 2.6 0.00 0.00 0.00 47 1015.2
20260831181526 93 348 0.0 4.3 0.00 0.00 0.00 48 1015.4
20260831180023 93 184 0.0 4.3 0.00 0.00 0.00 49 1015.6
20260831174519 93 195 0.0 1.7 0.00 0.00 0.00 48 1015.8
20260831173018 92 252 0.0 5.2 0.00 0.00 0.00 49 1016.0
20260831171515 92 215 0.0 0.9 0.00 0.00 0.00 49 1016.1
20260831170011 92 315 0.0 4.3 0.00 0.00 0.00 49 1016.4
20260831164515 91 192 0.0 0.9 0.00 0.00 0.00 51 1016.5
20260831163003 90 211 0.0 3.5 0.00 0.00 0.00 52 1016.6
20260831161559 89 209 0.0 1.7 0.00 0.00 0.00 52 1016.6
20260831160103 88 208 0.0 0.9 0.00 0.00 0.00 53 1016.6
20260831154555 87 251 0.0 7.0 0.00 0.00 0.00 54 1016.6
20260831153049 86 224 0.0 2.6 0.00 0.00 0.00 54 1016.7
20260831151547 86 221 0.0 5.2 0.00 0.00 0.00 54 1016.6
20260831150043 85 173 0.0 0.9 0.00 0.00 0.00 56 1016.4
20260831144549 84 216 0.0 6.1 0.00 0.00 0.00 58 1016.4
20260831143035 83 205 0.0 3.5 0.00 0.00 0.00 59 1016.2
20260831141531 82 220 0.0 0.0 0.00 0.00 0.00 60 1016.2
20260831140028 80 198 0.0 0.0 0.00 0.00 0.00 62 1016.2
20260831134525 79 223 0.0 0.0 0.00 0.00 0.00 62 1016.2
20260831133031 78 192 0.0 0.0 0.00 0.00 0.00 64 1016.1
20260831131521 77 192 0.0 0.0 0.00 0.00 0.00 65 1016.1
20260831130019 76 178 0.0 0.0 0.00 0.00 0.00 68 1016.1
20260831124520 75 178 0.0 0.0 0.00 0.00 0.00 69 1015.9
20260831123016 74 178 0.0 0.0 0.00 0.00 0.00 69 1015.7
20260831121514 74 178 0.0 0.0 0.00 0.00 0.00 69 1015.5
20260831120013 73 178 0.0 0.0 0.00 0.00 0.00 69 1015.3
20260831114512 73 178 0.0 0.0 0.00 0.00 0.00 68 1015.3
20260831113012 74 178 0.0 0.0 0.00 0.00 0.00 68 1015.3
20260831111510 74 178 0.0 0.0 0.00 0.00 0.00 68 1015.2
20260831110009 74 178 0.0 0.0 0.00 0.00 0.00 68 1015.2